Starlink 5062

operational
NORAD ID: 55637 Int'l Des: 2023-021 Owner: SPXS Country: US Constellation: starlink
LEOCIRCULAR

About Starlink 5062

Description loading...

Live Position

Loading 3D Globe...

Upcoming Passes

Altitude History

Altitude vs Time

uPlot chart will show altitude changes over time

Two-Line Element Set

1 55637U 23021K 25304.60933909 -.00006868 00000-0 -56800-3 0 9999
2 55637 69.9970 150.0263 0002395 276.1714 83.9172 14.98353737149455
Epoch: Oct 31, 2025 • Age: 9 hours

Current Status

Altitude 595.7 km
Velocity 7.56 km/s
Sub-Earth Point -69.11°S, 3.01°E
Launch Date Feb 17, 2023
Age 2.7 years
Type internet

Technical Details

Classification Payload
Mass 305.00 kg
Dry Mass 290.00 kg
Total Mass 305.00 kg
Length 0.20 m
Diameter 2.80 m
Span 9.00 m
Shape Box + pan
Manufacturer SPXS
Bus Type Starlink
Phase Status In Orbit
Owner/State SPXS/US

Large Constellations

Loading constellations...